Weather History for KSPS - April, 2013

Change the Weather History Date:

Sunday, April 7, 2013

  Actual Average Record
Temperature  
Mean Temperature 69 °F 60 °F  
Max Temperature 80 °F 74 °F 100 °F (1930)
Min Temperature 57 °F 47 °F 27 °F (2009)
Degree Days  
Heating Degree Days 0 6  
Month to date heating degree days 77 50  
Since 1 July heating degree days 2654 2853  
Cooling Degree Days 4 2  
Month to date cooling degree days 6 9  
Year to date cooling degree days 26 31  
Growing Degree Days 18 (Base 50)    
Moisture  
Dew Point 59 °F    
Average Humidity 74    
Maximum Humidity 93    
Minimum Humidity 54    
Precipitation  
Precipitation 0.00 in 0.07 in 2.22 in (1942)
Month to date precipitation 1.30 0.45  
Year to date precipitation 4.51 5.54  
Snow  
Snow 0.00 in 0.00 in - ()
Month to date snowfall 0.0 0.0  
Since 1 July snowfall 3.5 3.9  
Snow Depth -    
Sea Level Pressure  
Sea Level Pressure 29.71 in    
Wind  
Wind Speed 16 mph (SSE)    
Max Wind Speed 30 mph    
Max Gust Speed 36 mph    
Visibility 10 miles    
Events      
T = Trace of Precipitation, MM = Missing Value Source: NWS Daily Summary

Daily Weather History Graph

Daily Weather History Graph

Search for Another Location

Airport or City:

Trip Planner

Search our weather history database for the weather conditions in past years. The results will help you decide how hot, cold, wet, or windy it might be!

Date:

Astronomy

Apr. 07, 2013 Rise Set
Actual Time 7:12 AM CDT 7:59 PM CDT
Civil Twilight 6:47 AM CDT 8:24 PM CDT
Nautical Twilight 6:17 AM CDT 8:54 PM CDT
Astronomical Twilight 5:47 AM CDT 9:25 PM CDT
Moon 5:24 AM CDT (4/7) 5:38 PM CDT (4/7)
Length of Visible Light 13h 37m
Length of Day
12h 46m
Waning Crescent, 8% of the Moon is Illuminated
Apr 7
Waning Crescent
Apr 10
New
Apr 18
First Quarter
Apr 25
Full
May 2
Last Quarter

Hourly Weather History & Observations

Time (CDT) Temp. Dew Point Humidity Pressure Visibility Wind Dir Wind Speed Gust Speed Precip Events Conditions
12:52 AM 63.0 °F 55.9 °F 78% 29.80 in 10.0 mi ESE 8.1 mph - N/A   Clear
1:52 AM 61.0 °F 55.9 °F 83% 29.79 in 10.0 mi SE 8.1 mph - N/A   Clear
2:52 AM 59.0 °F 55.9 °F 90% 29.78 in 10.0 mi SE 5.8 mph - N/A   Clear
3:52 AM 57.9 °F 55.9 °F 93% 29.76 in 10.0 mi SE 8.1 mph - N/A   Clear
4:52 AM 57.9 °F 55.9 °F 93% 29.75 in 10.0 mi SSE 8.1 mph - N/A   Clear
5:52 AM 57.9 °F 55.9 °F 93% 29.75 in 10.0 mi SSE 9.2 mph - N/A   Clear
6:52 AM 57.9 °F 55.9 °F 93% 29.76 in 10.0 mi SSE 12.7 mph - N/A   Clear
7:52 AM 59.0 °F 55.9 °F 90% 29.78 in 10.0 mi SSE 13.8 mph - N/A   Clear
8:52 AM 61.0 °F 57.0 °F 87% 29.79 in 10.0 mi SSE 18.4 mph - N/A   Clear
9:52 AM 64.0 °F 57.9 °F 80% 29.79 in 10.0 mi South 16.1 mph 26.5 mph N/A   Scattered Clouds
10:14 AM 66.2 °F 57.2 °F 73% 29.81 in 10.0 mi South 18.4 mph 26.5 mph N/A   Mostly Cloudy
10:52 AM 66.9 °F 57.9 °F 73% 29.78 in 10.0 mi SSE 19.6 mph 27.6 mph N/A   Mostly Cloudy
11:34 AM 69.8 °F 59.0 °F 68% 29.79 in 10.0 mi SSE 23.0 mph 27.6 mph N/A   Scattered Clouds
11:52 AM 70.0 °F 59.0 °F 68% 29.76 in 10.0 mi South 18.4 mph 27.6 mph N/A   Scattered Clouds
12:52 PM 73.0 °F 60.1 °F 64% 29.74 in 10.0 mi South 20.7 mph 26.5 mph N/A   Scattered Clouds
1:52 PM 77.0 °F 60.1 °F 56% 29.71 in 10.0 mi South 16.1 mph 24.2 mph N/A   Scattered Clouds
2:52 PM 78.1 °F 60.1 °F 54% 29.68 in 10.0 mi South 20.7 mph 33.4 mph N/A   Partly Cloudy
3:52 PM 79.0 °F 60.1 °F 52% 29.65 in 10.0 mi SSE 19.6 mph 28.8 mph N/A   Clear
4:52 PM 79.0 °F 61.0 °F 54% 29.62 in 10.0 mi SSE 24.2 mph 31.1 mph N/A   Clear
5:52 PM 78.1 °F 61.0 °F 56% 29.59 in 10.0 mi SSE 21.9 mph 31.1 mph N/A   Clear
6:52 PM 75.9 °F 61.0 °F 60% 29.59 in 10.0 mi SE 25.3 mph 31.1 mph N/A   Clear
7:52 PM 72.0 °F 61.0 °F 68% 29.60 in 10.0 mi SE 17.3 mph - N/A   Clear
8:52 PM 70.0 °F 61.0 °F 73% 29.61 in 10.0 mi SE 16.1 mph - N/A   Clear
9:52 PM 69.1 °F 61.0 °F 75% 29.62 in 10.0 mi SSE 16.1 mph 24.2 mph N/A   Clear
10:52 PM 69.1 °F 61.0 °F 75% 29.62 in 10.0 mi SSE 17.3 mph - N/A   Clear
11:52 PM 69.1 °F 61.0 °F 75% 29.60 in 10.0 mi SSE 18.4 mph 32.2 mph N/A   Clear